Flag for Philippines Weather past 2 weeks in Mabalacat, Philippines

Now
86 °F

Broken clouds.


Feels Like: 97 °F
Forecast: 75 / 90 °F
Wind: 7 mph from South

Location: Clarkfield Pampanga International Airport

Current Time: Sep 1, 2015 at 4:40:16 PM

Latest Report: Sep 1, 2015 at 4:00 PM


Visibility: N/A

Pressure: 29.80 "Hg

Humidity: 75%

Dew point: 77 °F

Location of MabalacatLocation

Historic Weather in Mabalacat — Graph

°F

Mabalacat temperature yesterday

Maximum temperature yesterday: 88 °F (at 12:00 PM)
Minimum temperature yesterday: 72 °F (at 5:00 AM)
Average temperature yesterday: 79 °F

Past Weeks' High & Low Weather Summary

 TemperatureHumidityPressure
High91 °F (Aug 17, 3:00 PM)100% (Aug 17, 7:00 PM)29.95 "Hg (Aug 17, 7:00 PM)
Low72 °F (Aug 31, 5:00 AM)55% (Aug 18, 5:00 PM)29.53 "Hg (Aug 21, 4:00 PM)
Average79 °F89%29.80 "Hg
* Reported Aug 17 3:00 PM — Sep 1 3:00 PM, Mabalacat, Weather by CustomWeather, © 2015

Note: Actual official high and low records may vary slightly from our data, if they occured in-between our weather recording intervals... More about our weather records

Advertising

Mabalacat weather history for previous 24 hours

 ConditionsComfort  
Time TempWeatherWind HumidityBarometerVisibility
3:00 PM
Tue, Sep 1
86 °FBroken clouds.7 mph70%29.80 "HgN/A
2:00 PM86 °FBroken clouds.7 mph75%29.80 "HgN/A
1:00 PM84 °FSprinkles. Broken clouds.7 mph74%29.83 "HgN/A
11:00 AM86 °FBroken clouds.5 mph59%29.86 "HgN/A
10:00 AM86 °FPartly sunny.2 mph66%29.86 "HgN/A
9:00 AM84 °FPartly sunny.2 mph74%29.86 "HgN/A
8:00 AM82 °FPartly sunny.2 mph84%29.86 "HgN/A
7:00 AM79 °FPartly sunny.2 mph84%29.86 "HgN/A
6:00 AM75 °FBroken clouds.2 mph94%29.83 "HgN/A
5:00 AM75 °FPartly cloudy.1 mph94%29.83 "HgN/A
4:00 AM77 °FPartly cloudy.5 mph83%29.83 "HgN/A
3:00 AM77 °FPartly cloudy.2 mph89%29.86 "HgN/A
2:00 AM75 °FPartly cloudy.2 mph94%29.86 "HgN/A
1:00 AM77 °FPartly cloudy.3 mph83%29.86 "HgN/A
12:00 AM77 °FPassing clouds.3 mph94%29.89 "HgN/A
11:00 PM
Mon, Aug 31
77 °FPassing clouds.3 mph100%29.89 "HgN/A
10:00 PM79 °FPartly cloudy.3 mph94%29.89 "HgN/A
9:00 PM79 °FPartly cloudy.2 mph94%29.89 "HgN/A
8:00 PM79 °FPartly cloudy.2 mph100%29.86 "HgN/A
7:00 PM81 °FMostly cloudy.3 mph94%29.86 "HgN/A
6:00 PM82 °FBroken clouds.2 mph89%29.83 "HgN/A
5:00 PM82 °FBroken clouds.2 mph89%29.80 "HgN/A
4:00 PM77 °FBroken clouds.5 mph100%29.83 "HgN/A
Weather by CustomWeather, © 2015

See weather overviewHow to use our weather pages